Погода Луговая

Погода Луговая : погода сейчас, прогноз погоды и архив. Всё, что Вы хотите узнать о погоде Луговая!

Хотите узнать прогноз погоды Луговая? Тогда Вам сюда: Погода Луговая

Поиск расширенной информации на нашем сайте:

Полезная информация: Тампоны clean point купить проще и дешевле здесь!

Другие новости

Новости СМИ2

Главная страница сайта

Новости сайта

03.07.2017

Напоминаем, что на нашем специализированном сайте Метеоцентр.Азия вы можете получить высокодетализированные автоматические прогнозы погоды по пунктам России, СНГ и мира в авиационном формате (включающие направление и скорость ветра, видимость, явления погоды, количество и форму облачности, нижнюю и верхнюю границу облачности).

Рекомендуем: Стихи и поздравления на заказ заказ стихов.

Погода Луговая - сегодня

Время (UTC), дата Ветер
(°,м/с) 
Видим.   Явления Облачность Т
(°С)
Тd
(°С)
f(%) Тe
(°С)
Pmin
(гПа)
dP
(гПа)
Po
(мм)
O2
(г/м3)
Тmin Tmax R s Состояние
почвы
06 15.08.17 290 (З) 20000 м    8/4 1000 м верхняя 
[Cu med, cong|Ci fib]
+27.3 +2.9 21 +27  1005.9  0.6  697  255  +11         
09 15.08.17 070 (В) 20000 м    6/4 1000 м верхняя 
[Cu med, cong|Ci fib]
+28.7 +3.6 20 +29  1005.8  0.2  697  254           
12 15.08.17 110 (В) 20000 м    8/4 600 м кучево-дожд., верхняя 
[Cb cap|Ci fib]
+27.6 +4.5 23 +28  1006.5  0.4  698  255           
15 15.08.17 180 (Ю) 20000 м    3/3 600 м кучево-дожд. 
[Cb cap]
+23.2 +3 27 +23  1008.1  0.4  698  259    +28.7       
18 15.08.17 180 (Ю) 10 км    ясно 
+20 +1.7 30 +20  1008.2  -0.7  698  261    +28.7       
21 15.08.17 180 (Ю) 10 км    ясно 
+19 +1.5 31 +21  1007.2  -1.2  697  262           
00 16.08.17 тихо ()   20000 м    3/0 
+15.8 +2.7 41 +16  1008.2  697  265           
03 16.08.17 тихо ()   20000 м    3/0 средняя 
[Ac trans]
+22.5 +5.8 34 +23  1007  0.7  697  258           
06 16.08.17 320 (СЗ) 20000 м    6/0 средняя, верхняя 
[Ac trans|Ci fib]
+27.2 +3 21 +27  1005.8  697  255  +14.4         
09 16.08.17 250 (З) 20000 м    8/8 600 м кучево-дожд. 
[Cb cap]
+27.8 +2.9 20 +28  1004.8  -0.8  697  254           
12 16.08.17 200 (Ю) 20000 м    9/9 600 м кучево-дожд. 
[Cb cap]
+25.8 +4 24 +26  1006.8  1.4  698  256           
15 16.08.17 230 (ЮЗ) 20000 м    3/3 600 м кучево-дожд. 
[Cb cap]
+19.6 +1.9 31 +21  1011.6  2.9  700  263    +28.2       
18 16.08.17 180 (Ю) 10 км    ясно 
+15.7 +2.3 40 +16  1012.4  -0.4  699  266    +28.2       
21 16.08.17 090 (В) 10 км    3/0 верхняя 
[Ci fib]
+15.5 +1.9 40 +17  1011  -1.2  699  266           
00 17.08.17 320 (СЗ) 20000 м    3/0 средняя 
[Ac trans]
+12.3 +0.9 46 +14  1011.8  -0.2  698  269           
03 17.08.17 340 (С) 20000 м    4/4 600 м кучево-дожд. 
[Cb cap]
+17.8 +2.5 36 +19  1011.4  0.9  699  264           
06 17.08.17 020 (С) 20000 м    4/3 1000 м средняя 
[Cu hum|Ac trans]
+24.2 +7.3 34 +24  1010.9  1.4  700  258  +12         
09 17.08.17 тихо ()   20000 м    8/8 600 м кучево-дожд. 
[Cb cap]
+24.6 +6.8 32 +25  1011.6  0.8  701  258           
12 17.08.17 тихо ()   20000 м    9/9 600 м кучево-дожд. 
[Cb cap]
+24 +6.7 33 +24  1012.7  0.9  701  259           
15 17.08.17 тихо ()   20000 м    6/6 600 м кучево-дожд. 
[Cb cap]
+20.3 +7.3 43 +20  1015.1  1.3  702  262    +25       
18 17.08.17 050 (СВ) 10 км    ясно 
+17.6 +7.3 51 +19  1017.9  1.9  704  265    +25       
21 17.08.17 тихо ()   10 км    ясно 
+12.4 +5.8 64 +12  1018.2  -1.4  703  270           
00 18.08.17 тихо ()   20000 м    ясно 
+11.6 +5.6 67 +12  1018.4  703  271           
03 18.08.17 050 (СВ) 20000 м    ясно 
+16.1 +6.5 53 +17  1017.6  0.4  703  266           
06 18.08.17 020 (С) 20000 м    1/1 1000 м 
[Cu hum]
+23.6 +8 37 +24  1014.9  -0.4  703  259  +11.3         
Время (UTC), дата Ветер
(°,м/с) 
Видим.   Явления Облачность Т
(°С)
Тd
(°С)
f(%) Тe
(°С)
Pmin
(гПа)
dP
(гПа)
Po
(мм)
O2
(г/м3)
Тmin Tmax R s Состояние
почвы

Для получения пояснительной информации подведите курсор к названию столбца.

ПОГОДА Луговая - архив

Всё, что Вы хотите узнать о погоде Луговая - удобно и подробно!

Выберите нужную дату (начиная с 1 января 2015* года) и нажмите кнопку "Найти".
Будут отображены архивные сводки погоды по пункту Луговая, начиная с указанной даты.


Отображать данные в формате CSV (для использования в таблицах Excel)


Внимание! Наш архив погоды предназначен исключительно для личного некоммерческого использования в познавательных целях. Если Вам необходимы официальные справки о состоянии погоды (для производственных, юридических, коммерческих и т.п. целей), обращайтесь в органы Росгидромета.

*Примечание: данная дата относится к архиву по метеостанциям СССР (Россия, СНГ, Балтия).
Архив по метеостанциям Зарубежной Европы и Азии (кроме Китая) хранится 10 дней, по другим регионам земного шара (Китай, Африка, Америка, Австралия, Океания) - 1 день.

Луговая - район местоположения метеостанции


Название, широта, долгота, высота метеостанции:
Луговая 42.9°ш. 72.8°д. 683 м над ур. моря [Казахстан]

Дополнительная информация

В oтличие oт бoльшинства пoгoдных сайтoв мы публикуем пoдрoбную метеoинфoрмацию в детальнoм прoфессиoнальнoм фoрмате.

Характеристики температуры и влажнoсти вoздуха измеряются на высoте 2 м в тени вдали oт зданий и деревьев.
Скoрoсть ветра измеряется на высoте 10 м (на урoвне рoста челoвека скoрoсть ветра ниже в 1.5-2 раза). Если метеoстанция нахoдится в гoрoде или в лесу, тo скoрoсть ветра занижена на 2-4 м/с пo сравнению с oткрытым местoм. Скoрoсть ветра над акватoриями крупных рек и oзёр, а также на вершинах хoлмoв на 2-5 м/с выше, чем в oбычных услoвиях.
Атмoсфернoе давление в разных тoчках местнoсти мoжет значительнo oтличаться oт давления на метеoстанции, в зависимoсти oт услoвий рельефа (при пoдъёме на 10 м давление пoнижается примернo на 1 мм рт.ст.).